Overview Statistics Trail Chart Weather Telemetry Raw packets
 

This is the latest recevied weather packets stored in our database for station/object KY0TEQ-13. If no packets are shown the sender has not sent any weather packets the latest 10 day(s).

<< 22 23 24 25 26 27 28 >>
Time Temp. Humidity Pressure Rain* Wind** Luminosity Snow
1788536051 20° C 47% 1309.9 hPa 0 mm - 185 W/m² -
1788535748 20° C 48% 1309.6 hPa 0 mm - 220 W/m² -
1788535448 20.56° C 46% 1309.5 hPa 0 mm - 454 W/m² -
1788535141 21.67° C 44% 1309.5 hPa 0 mm - 470 W/m² -
1788534836 20.56° C 46% 1309.7 hPa 0 mm - 440 W/m² -
1788534532 20.56° C 46% 1309.6 hPa 0 mm - 162 W/m² -
1788534227 20.56° C 46% 1309.5 hPa 0 mm - 383 W/m² -
1788533925 21.11° C 45% 1309.5 hPa 0 mm - 322 W/m² -
1788533621 19.44° C 48% 1309.5 hPa 0 mm - 302 W/m² -
1788533317 18.33° C 51% 1309.5 hPa 0 mm - 234 W/m² -
1788533012 18.89° C 52% 1309.4 hPa 0 mm - 225 W/m² -
1788532707 17.78° C 53% 1309.4 hPa 0 mm - 229 W/m² -
1788532404 16.67° C 57% 1309.5 hPa 0 mm - 151 W/m² -
1788532100 16.67° C 58% 1309.4 hPa 0 mm - 205 W/m² -
1788531796 16.67° C 58% 1309.5 hPa 0 mm - 160 W/m² -
1788531495 15.56° C 58% 1309.6 hPa 0 mm - 149 W/m² -
1788531191 15.56° C 61% 1309.4 hPa 0 mm - 78 W/m² -
1788530887 15.56° C 60% 1309.3 hPa 0 mm - 49 W/m² -
1788530582 16.11° C 60% 1309.3 hPa 0 mm - 61 W/m² -
1788530281 15.56° C 59% 1309.4 hPa 0 mm - 86 W/m² -
1788529976 15.56° C 60% 1309.3 hPa 0 mm - 39 W/m² -
1788529672 15° C 62% 1309.3 hPa 0 mm - 73 W/m² -
1788529371 14.44° C 62% 1309.3 hPa 0 mm - 53 W/m² -
1788529067 14.44° C 62% 1309.1 hPa 0 mm - 40 W/m² -
1788528762 14.44° C 62% 1308.8 hPa 0 mm - 34 W/m² -

* Rain latest hour (hover to see other rain measurements)
** Current wind speed in m/s (hover to see current wind gust speed)